[[{"header":{"parameterUnit":"m.s-1","parameterCategory":1,"la1":30.2991,"la2":30.254,"lo1":-89.0895,"lo2":-89.0444,"dy":0.0017,"dx":0.0017,"nx":28,"ny":28,"refTime":"2023-10-11T03:00:00:Z","depth":0,"parameterNumber":2,"parameterNumberName":"U-component_of_WINDS"},"data":[0,0,0,0,0,0,0,0,0,0,0,0,0,0,0,0,0,0,0,0,0,0,0,0,0,0,0,0,0,0,0,0,0,0,0,0,0,0,0,0,0,0,0,0,0,0,0,0,0,0,0,0,0,0,0,0,0,0,-2.5113,-2.5114,0,-2.5149,-2.5149,-2.5149,-2.5094,-2.5092,-2.509,-2.5088,-2.5124,-2.5127,-2.5129,0,0,0,0,0,0,0,0,0,0,0,0,0,-2.4997,-2.4999,-2.5113,-2.5114,-2.5114,-2.5148,-2.5149,-2.5149,-2.5094,-2.5092,-2.5089,-2.5087,-2.5123,-2.5126,-2.513,0,0,0,0,0,0,0,0,0,0,0,0,0,-2.5041,-2.5,-2.5113,-2.5091,-2.5089,-2.5148,-2.5149,-2.515,-2.5095,-2.5092,-2.5089,-2.5086,-2.5122,-2.5126,-2.513,-2.5213,0,0,-2.5143,-2.5144,0,0,0,0,0,0,0,0,-2.5039,-2.5046,-2.5093,-2.5092,-2.509,-2.5114,-2.5121,-2.5171,-2.5095,-2.5092,-2.5088,-2.5085,-2.5123,-2.5127,-2.514,-2.5215,-2.5216,-2.5143,-2.5146,-2.5147,-2.5148,0,0,0,0,0,0,0,-2.5036,-2.5044,-2.5127,-2.5094,-2.5092,-2.5078,-2.5082,-2.513,-2.5123,-2.5092,-2.5088,-2.5093,-2.5121,-2.5136,-2.514,-2.5217,-2.5143,-2.5147,-2.5149,-2.5151,-2.5361,-2.5364,0,0,0,0,0,0,-2.5036,-2.5042,-2.5126,-2.5128,-2.5057,-2.5083,-2.5086,-2.5109,-2.5123,-2.5122,-2.5096,-2.5091,-2.513,-2.5135,-2.5141,-2.5239,-2.5147,-2.5151,-2.5153,-2.5358,-2.5362,-2.5365,0,0,0,0,0,0,-2.5033,-2.5044,-2.5125,-2.5084,-2.5093,-2.5088,-2.5114,-2.5111,-2.5126,-2.5125,-2.5124,-2.5112,-2.5128,-2.5135,-2.5195,-2.5239,-2.5153,-2.5157,-2.5354,-2.5359,-2.5363,-2.5435,0,0,0,0,0,0,-2.503,-2.5043,-2.5075,-2.5085,-2.5096,-2.5179,-2.5117,-2.5114,-2.5133,-2.5127,-2.514,-2.5139,-2.5126,-2.519,-2.52,-2.5243,-2.516,-2.535,-2.5356,-2.5362,-2.5428,-2.5441,-2.5452,0,0,0,0,0,-2.5026,-2.5094,-2.5077,-2.5087,-2.5135,-2.5181,-2.5187,-2.5171,-2.5137,-2.5168,-2.5168,-2.5139,-2.5233,-2.5196,-2.5207,-2.5253,-2.5347,-2.5355,-2.5361,-2.5423,-2.5439,-2.5452,0,0,0,0,0,0,-2.5089,-2.5095,-2.5076,-2.5149,-2.5165,-2.5172,-2.5211,-2.5189,-2.5215,-2.5208,-2.5187,-2.519,-2.5255,-2.526,-2.5219,-2.5333,-2.5284,-2.5294,-2.5328,-2.5342,-2.5354,-2.5351,-2.5163,0,0,0,0,0,-2.5112,-2.5149,-2.5152,-2.5216,-2.5225,-2.5217,-2.5236,-2.5223,-2.5238,-2.5245,-2.5249,-2.5266,-2.5298,-2.5321,-2.5351,-2.5429,-2.5431,-2.5466,-2.5478,-2.5487,-2.5496,-2.5536,-2.5552,-2.5388,-2.5388,-2.5388,0,0,-2.5158,-2.5166,-2.5191,-2.5228,-2.5239,-2.5278,-2.5223,-2.5266,-2.5295,-2.5252,-2.5308,-2.5312,-2.5329,-2.5398,-2.5429,-2.5404,-2.5541,-2.5496,-2.5504,-2.5507,-2.5545,-2.556,-2.5574,-2.5393,-2.5392,-2.5391,0,0,-2.5262,-2.5272,-2.5326,-2.5338,-2.5355,-2.535,-2.5363,-2.5373,-2.5374,-2.543,-2.5399,-2.5432,-2.549,-2.5503,-2.5517,-2.5626,-2.56,-2.5636,-2.5698,-2.5738,-2.5751,-2.5762,-2.58,-2.5814,-2.5645,-2.5645,-2.5645,0,-2.5318,-2.5375,-2.5357,-2.5402,-2.542,-2.5382,-2.5436,-2.5449,-2.5475,-2.5488,-2.546,-2.5531,-2.554,-2.5611,-2.5638,-2.5651,-2.5665,-2.5635,-2.5751,-2.5762,-2.5772,-2.5808,-2.5823,-2.5649,-2.5649,-2.5648,-2.5648,0,-2.5442,-2.5483,-2.5524,-2.555,-2.5572,-2.5622,-2.5611,-2.5635,-2.5619,-2.5616,-2.5674,-2.5684,-2.5715,-2.5731,-2.5716,-2.58,-2.5784,-2.5754,-2.5704,-2.5792,-2.5826,-2.584,-2.5655,-2.5654,-2.5653,-2.5652,0,0,-2.5588,-2.5602,-2.5618,-2.5629,-2.5645,-2.5675,-2.5723,-2.5754,-2.5775,-2.5794,-2.5833,-2.5883,-2.5855,-2.5871,-2.5857,-2.5893,-2.5977,-2.5858,-2.5858,-2.5879,-2.6069,-2.6091,-2.6108,-2.596,-2.5963,-2.5965,-2.6068,0,-2.5691,-2.5773,-2.5758,-2.5838,-2.5874,-2.5839,-2.588,-2.5895,-2.5893,-2.5924,-2.5922,-2.5957,-2.5918,-2.5927,-2.596,-2.596,-2.6015,-2.5952,-2.5996,-2.5998,-2.5992,-2.6125,-2.6149,-2.6246,-2.6081,-2.6083,-2.6084,0,-2.5823,-2.5847,-2.593,-2.594,-2.5954,-2.5992,-2.6018,-2.6048,-2.6063,-2.6059,-2.6077,-2.6057,-2.6104,-2.6054,-2.6118,-2.6076,-2.6093,-2.6095,-2.6099,-2.6102,-2.6046,-2.6131,-2.6276,-2.6291,-2.6105,-2.6103,-2.6102,0,-2.5919,-2.5973,-2.6029,-2.604,-2.6052,-2.6079,-2.6086,-2.6098,-2.6117,-2.614,-2.6152,-2.6181,-2.6196,-2.6219,-2.6206,-2.6171,-2.6272,-2.6222,-2.627,-2.6271,-2.6293,-2.6291,-2.6442,-2.6305,-2.6305,-2.6304,-2.6304,0,-2.6036,-2.6089,-2.6073,-2.6108,-2.6165,-2.6146,-2.6204,-2.6206,-2.6217,-2.6252,-2.6223,-2.6256,-2.6238,-2.6269,-2.626,-2.6314,-2.6321,-2.6319,-2.6316,-2.6322,-2.6322,-2.6332,-2.6325,-2.6308,-2.6307,-2.6307,-2.6306,0,-2.6154,-2.6145,-2.6205,-2.6211,-2.6214,-2.6256,-2.6262,-2.6294,-2.629,-2.6334,-2.6343,-2.6337,-2.6373,-2.6363,-2.6401,-2.6395,-2.6463,-2.6452,-2.6458,-2.6455,-2.6504,-2.6499,-2.6666,-2.6686,-2.6537,-2.6538,-2.6539,0,-2.6229,-2.6268,-2.6279,-2.63,-2.6308,-2.6342,-2.6362,-2.6345,-2.6366,-2.6386,-2.6416,-2.6448,-2.6474,-2.6532,-2.6531,-2.656,-2.6549,-2.6605,-2.6553,-2.6557,-2.6549,-2.6546,-2.655,-2.6615,-2.6617,-2.6618,-2.6619,0,-2.6362,-2.6356,-2.6385,-2.6412,-2.6436,-2.6456,-2.6474,-2.6493,-2.6477,-2.6503,-2.6538,-2.6558,-2.6597,-2.663,-2.6656,-2.6662,-2.6639,-2.6636,-2.6648,-2.6654,-2.6656,-2.6655,-2.6486,-2.6632,-2.6631,-2.663,-2.6629,-2.6629,-2.6461,-2.6494,-2.6506,-2.6539,-2.655,-2.6568,-2.6598,-2.6598,-2.6627,-2.6658,-2.6646,-2.6687,-2.67,-2.6733,-2.6743,-2.6774,-2.6753,-2.6771,-2.6776,-2.6781,-2.6786,-2.6652,-2.6779,-2.6779,-2.6778,-2.6778,-2.6778,0,-2.6592,-2.6598,-2.6629,-2.6654,-2.668,-2.6655,-2.6673,-2.6697,-2.6733,-2.6747,-2.6772,-2.6813,-2.6845,-2.6846,-2.6875,-2.69,-2.689,-2.6909,-2.6906,-2.6908,-2.6804,-2.679,-2.6916,-2.6916,-2.6916,-2.6916,-2.6916,-2.6916,-2.6664,-2.6718,-2.6713,-2.6773,-2.6778,-2.6818,-2.683,-2.6846,-2.6857,-2.6904,-2.693,-2.693,-2.6939,-2.6969,-2.6997,-2.6996,-2.7008,-2.7031,-2.7026,-2.6929,-2.6915,-2.6902,-2.6889,-2.7034,-2.7034,-2.7127,-2.7128,-2.7128]},{"header":{"parameterUnit":"m.s-1","parameterCategory":1,"la1":30.2991,"la2":30.254,"lo1":-89.0895,"lo2":-89.0444,"dy":0.0017,"dx":0.0017,"nx":28,"ny":28,"refTime":"2023-10-11T03:00:00:Z","depth":0,"parameterNumber":3,"parameterNumberName":"V-component_of_WINDS"},"data":[0,0,0,0,0,0,0,0,0,0,0,0,0,0,0,0,0,0,0,0,0,0,0,0,0,0,0,0,0,0,0,0,0,0,0,0,0,0,0,0,0,0,0,0,0,0,0,0,0,0,0,0,0,0,0,0,0,0,2.1798,2.1798,0,2.1826,2.1826,2.1826,2.1797,2.1796,2.1795,2.1794,2.182,2.1821,2.1823,0,0,0,0,0,0,0,0,0,0,0,0,0,2.1715,2.1716,2.1798,2.1798,2.1798,2.1826,2.1826,2.1827,2.1798,2.1796,2.1795,2.1794,2.1819,2.1821,2.1823,0,0,0,0,0,0,0,0,0,0,0,0,0,2.1747,2.1717,2.1797,2.1787,2.1787,2.1826,2.1826,2.1827,2.1798,2.1796,2.1794,2.1793,2.1818,2.1821,2.1823,2.1873,0,0,2.1831,2.1832,0,0,0,0,0,0,0,0,2.1746,2.1751,2.1788,2.1788,2.1787,2.1806,2.1806,2.1842,2.1798,2.1793,2.1794,2.1792,2.1816,2.1819,2.1828,2.1874,2.1875,2.1832,2.1833,2.1834,2.1835,0,0,0,0,0,0,0,2.1743,2.1749,2.1809,2.1789,2.1788,2.178,2.1783,2.1813,2.1814,2.1794,2.1792,2.1796,2.1816,2.1825,2.1828,2.1876,2.1831,2.1834,2.1835,2.1836,2.1963,2.1965,0,0,0,0,0,0,2.1743,2.1747,2.1808,2.1809,2.1762,2.1783,2.1786,2.1802,2.1814,2.1814,2.1797,2.1794,2.1822,2.1825,2.1829,2.1887,2.1834,2.1837,2.1838,2.1961,2.1964,2.1966,0,0,0,0,0,0,2.1741,2.1748,2.1807,2.1778,2.1785,2.1786,2.1804,2.1803,2.1813,2.1816,2.1816,2.1807,2.1821,2.1825,2.1862,2.1887,2.1838,2.184,2.1959,2.1962,2.1965,2.2004,0,0,0,0,0,0,2.1739,2.1748,2.1768,2.1779,2.1786,2.1841,2.1806,2.1805,2.1818,2.1815,2.1825,2.1825,2.182,2.1859,2.1865,2.189,2.1842,2.1957,2.1961,2.1964,2.2,2.2008,2.2014,0,0,0,0,0,2.1736,2.1777,2.1769,2.1776,2.1811,2.1842,2.1846,2.184,2.182,2.1839,2.1841,2.1825,2.1884,2.1863,2.187,2.1896,2.1955,2.1959,2.1963,2.1997,2.2006,2.2014,0,0,0,0,0,0,2.1768,2.1778,2.1769,2.1815,2.1828,2.1837,2.1861,2.185,2.1867,2.1863,2.1853,2.1856,2.1895,2.1899,2.1875,2.1944,2.1916,2.1922,2.194,2.1948,2.1955,2.1952,2.1844,0,0,0,0,0,2.178,2.1806,2.1813,2.1853,2.186,2.186,2.1873,2.1867,2.1879,2.1884,2.1889,2.19,2.1921,2.1935,2.1955,2.2001,2.2002,2.2023,2.203,2.2035,2.204,2.2064,2.2072,2.1979,2.1979,2.1979,0,0,2.1806,2.1815,2.1831,2.186,2.1869,2.1894,2.1864,2.1892,2.191,2.1888,2.1923,2.1927,2.1939,2.1981,2.2,2.1986,2.2066,2.204,2.2045,2.2046,2.2069,2.2077,2.2085,2.1982,2.1981,2.1981,0,0,2.1866,2.1876,2.191,2.192,2.1935,2.1934,2.1942,2.1953,2.1955,2.1991,2.1974,2.1995,2.2032,2.2041,2.2051,2.2114,2.2099,2.2121,2.2156,2.2179,2.2186,2.2193,2.2214,2.2222,2.2126,2.2126,2.2126,0,2.1895,2.1934,2.1928,2.1958,2.197,2.1952,2.1986,2.1995,2.2015,2.2024,2.2008,2.2054,2.2061,2.2104,2.212,2.2128,2.2136,2.2119,2.2186,2.2192,2.2198,2.2218,2.2227,2.2128,2.2128,2.2128,2.2127,0,2.1969,2.1996,2.2022,2.2043,2.2058,2.2089,2.2087,2.2103,2.2096,2.2097,2.2132,2.2141,2.2161,2.2171,2.2164,2.2213,2.2204,2.2188,2.2159,2.221,2.2228,2.2236,2.2131,2.2131,2.213,2.2129,0,0,2.2048,2.2067,2.2076,2.2085,2.21,2.212,2.215,2.2171,2.2185,2.2199,2.2223,2.2255,2.224,2.2251,2.2244,2.2265,2.2314,2.2246,2.2246,2.2257,2.2367,2.2378,2.2387,2.2305,2.2306,2.2307,2.2365,0,2.2108,2.2161,2.2157,2.2207,2.2231,2.2214,2.224,2.2252,2.2253,2.2273,2.2274,2.2297,2.2276,2.2282,2.2302,2.2304,2.2335,2.23,2.2325,2.2326,2.2322,2.2397,2.241,2.2464,2.2373,2.2374,2.2375,0,2.2183,2.2202,2.2254,2.2266,2.2275,2.2299,2.2318,2.2338,2.235,2.2349,2.2362,2.2352,2.2381,2.2354,2.2393,2.2368,2.2379,2.2381,2.2383,2.2384,2.2353,2.2399,2.2481,2.2489,2.2387,2.2386,2.2385,0,2.2234,2.2272,2.2308,2.2317,2.2331,2.2348,2.2354,2.2365,2.2378,2.2394,2.2402,2.2421,2.2432,2.2446,2.2441,2.2422,2.2481,2.2453,2.248,2.248,2.2492,2.2491,2.2576,2.2501,2.2501,2.2501,2.2501,0,2.23,2.2333,2.2331,2.2353,2.2389,2.2384,2.2418,2.2423,2.2433,2.2454,2.2441,2.2462,2.2455,2.2475,2.2471,2.2503,2.2508,2.2508,2.2506,2.2508,2.2508,2.2514,2.2509,2.2503,2.2503,2.2502,2.2502,0,2.2363,2.2363,2.2401,2.2412,2.2416,2.2441,2.245,2.247,2.2471,2.2498,2.2505,2.2506,2.2528,2.2525,2.255,2.2548,2.2588,2.2582,2.2584,2.2582,2.2609,2.2606,2.2699,2.271,2.263,2.263,2.2631,0,2.2404,2.2429,2.2442,2.2457,2.2464,2.2487,2.2501,2.2496,2.251,2.2526,2.2544,2.2566,2.2583,2.2619,2.2622,2.264,2.2634,2.2666,2.2637,2.2638,2.2633,2.2631,2.2633,2.2671,2.2672,2.2672,2.2673,0,2.2476,2.2476,2.2496,2.2517,2.2533,2.2549,2.2563,2.2575,2.2572,2.2588,2.2612,2.2625,2.2651,2.2672,2.269,2.2695,2.2683,2.2682,2.2689,2.2691,2.269,2.269,2.2598,2.268,2.2679,2.2679,2.2678,2.2678,2.2529,2.255,2.2563,2.2586,2.2596,2.261,2.2629,2.2633,2.2653,2.2674,2.267,2.2696,2.2707,2.273,2.2737,2.2757,2.2745,2.2756,2.2758,2.276,2.2763,2.2689,2.276,2.276,2.276,2.2759,2.2759,0,2.2599,2.2607,2.2629,2.2649,2.2667,2.2656,2.2671,2.2686,2.271,2.2722,2.2739,2.2765,2.2786,2.279,2.2809,2.2824,2.2819,2.2829,2.2827,2.2828,2.2773,2.2764,2.2833,2.2833,2.2833,2.2833,2.2833,2.2833,2.2638,2.2673,2.2674,2.2713,2.272,2.2746,2.2756,2.2768,2.2777,2.2808,2.2825,2.2828,2.2837,2.2857,2.2874,2.2875,2.2882,2.2894,2.2892,2.284,2.2833,2.2825,2.2817,2.2896,2.2896,2.2946,2.2947,2.2947]}]]